Theta_e
291 291 291 293 293 293 293 294 294 295 295 296 297 297 297 298 299 298 294 296 291 286 287 286 287 285 284 285 284 283 286 285 283 283 283 281 281 280 282 283 283 282 281 281 281 281 279 285 283 284 289 285 287 291
290 291 291 292 292 292 293 293 293 294 295 295 295 296 297 297 298 299 292 296 296 288 287 289 289 289 289 289 286 283 284 284 288 285 282 279 278 277 279 279 281 282 286 284 285 285 285 286 286 287 289 288 288 289
289 290 291 291 292 292 292 292 292 293 294 294 295 295 296 297 298 297 293 294 291 285 285 286 286 291 290 290 292 286 283 285 286 285 283 280 280 279 278 278 281 282 283 285 286 285 285 285 286 288 289 289 289 290
287 288 290 291 291 292 292 292 292 292 293 293 294 294 295 296 297 297 293 294 291 285 282 283 287 287 290 290 290 290 287 285 285 286 284 281 281 280 280 281 283 284 283 282 282 280 283 284 286 288 288 288 286 287
288 287 288 289 290 291 291 292 291 291 291 292 292 293 294 295 296 296 295 294 294 288 280 280 282 285 287 288 288 288 288 286 285 282 281 283 280 280 276 279 279 281 281 282 284 284 285 286 286 288 287 286 286 285
287 287 288 288 289 289 291 291 291 291 291 291 291 292 293 294 295 290 283 291 294 292 284 278 283 280 284 286 286 287 287 285 286 285 283 281 281 282 279 278 282 282 283 285 285 286 286 286 288 287 286 285 285 284
287 287 288 288 288 289 290 291 291 291 291 291 291 291 292 293 292 285 284 288 295 292 283 278 278 280 283 283 283 284 285 285 285 283 281 282 280 282 277 278 282 283 284 284 285 284 283 283 284 285 284 284 281 279
286 287 287 288 289 289 289 290 290 291 291 291 291 291 292 292 292 286 290 294 293 285 284 277 276 278 282 281 281 285 283 284 284 284 279 280 279 279 276 281 284 283 283 282 282 282 282 282 282 280 279 278 277 276
286 287 288 288 289 290 290 290 290 290 290 291 291 291 290 288 284 285 293 295 292 285 278 277 274 273 280 280 282 283 284 279 284 281 281 280 278 276 280 282 281 282 281 281 278 275 275 278 280 278 277 275 277 275
286 287 288 290 290 290 290 290 290 289 289 291 288 283 279 283 291 292 287 283 282 282 278 275 272 274 280 279 278 280 281 279 275 279 281 278 279 283 282 283 284 281 282 278 275 273 271 274 276 275 276 277 279 277
286 287 287 290 288 289 289 289 290 290 289 285 281 280 283 291 285 283 278 277 278 275 277 273 273 274 279 275 276 278 276 278 273 276 277 275 276 281 284 283 280 282 281 280 284 285 283 283 279 277 275 275 274 273
286 286 287 288 287 288 289 290 290 287 284 284 281 285 284 280 277 274 273 274 274 272 270 272 273 277 276 278 276 274 274 274 271 277 275 272 276 281 282 283 281 280 280 280 281 283 282 280 281 279 278 275 273 271
285 285 286 287 287 286 286 286 287 288 288 285 281 277 276 274 270 269 267 267 268 270 272 272 273 276 277 277 273 274 271 271 275 273 272 275 276 277 275 273 274 278 279 280 280 281 276 279 272 276 274 268 265 263
284 285 286 285 285 285 286 286 287 287 285 278 275 269 270 268 267 268 268 269 271 272 270 272 273 273 274 274 274 270 272 271 268 267 269 276 275 263 262 263 265 269 273 277 280 279 273 269 265 260 265 263 262 259
284 285 282 281 284 285 287 288 287 281 279 275 272 268 266 265 261 260 256 266 267 273 274 273 272 276 272 270 273 268 266 264 268 268 274 275 263 258 259 259 259 260 262 263 262 262 262 260 260 257 256 259 260 256
284 279 277 283 284 283 283 277 273 269 263 267 266 265 257 263 260 259 257 261 259 269 271 271 269 269 270 271 268 267 265 264 269 270 274 262 257 256 255 255 256 255 257 260 260 260 259 258 257 255 253 254 255 255
278 268 280 282 282 279 277 269 267 260 261 260 255 252 254 256 258 254 253 257 259 266 267 267 265 266 268 265 265 265 266 271 270 268 256 253 253 253 251 251 253 255 255 254 254 255 254 253 252 253 253 252 253 254
268 273 279 281 276 272 265 262 259 258 253 253 257 253 253 252 253 253 253 256 261 264 265 267 267 264 265 264 265 268 265 254 250 251 251 249 249 250 251 252 251 252 253 253 253 252 253 254 255 256 253 251 250 251
274 275 278 279 274 267 264 261 258 252 251 251 254 254 253 252 254 254 253 256 258 260 262 266 269 268 265 257 255 251 249 250 251 251 251 248 248 247 248 251 253 253 253 252 253 254 254 254 256 255 253 253 254 253
277 276 276 274 272 266 261 259 261 256 250 253 253 252 255 255 254 252 253 254 257 260 265 266 258 249 249 248 247 247 248 251 250 252 253 252 251 249 249 251 252 252 253 252 253 252 253 253 253 253 254 255 254 253
268 269 270 266 261 259 256 256 256 256 256 254 253 254 253 251 250 251 252 253 257 249 253 245 245 246 246 246 247 246 247 249 251 252 253 253 252 251 250 250 251 252 252 253 253 253 254 254 252 253 254 254 254 254
261 268 260 264 261 258 256 255 256 258 256 254 255 255 253 252 250 249 250 250 246 245 245 244 245 245 245 246 247 247 248 248 250 252 253 253 251 252 252 251 252 251 252 252 252 252 252 252 252 253 254 252 252 252
261 262 256 256 258 256 253 257 256 255 257 255 255 255 252 253 252 254 252 249 248 248 246 246 246 246 246 249 249 250 249 250 251 252 252 252 252 253 252 252 254 252 251 251 252 253 252 252 252 252 251 251 251 251
255 247 247 247 250 248 252 253 255 255 255 255 255 252 252 251 251 255 253 251 249 249 247 247 247 249 250 250 250 250 249 249 250 250 250 252 251 250 250 250 251 250 251 251 252 251 251 251 251 251 251 250 249 250
252 242 243 242 245 247 249 251 252 254 252 251 252 252 250 248 254 254 253 251 249 249 249 248 249 250 250 251 251 250 248 248 251 251 250 250 249 250 250 250 250 249 249 250 250 250 249 249 250 250 249 249 249 248
240 236 239 234 240 242 240 246 245 246 248 251 247 247 247 250 253 252 251 250 249 248 249 249 249 250 251 249 250 251 248 246 247 251 249 248 248 250 250 251 251 251 248 248 249 248 248 247 247 247 247 247 246 247
242 238 236 235 236 236 238 237 238 243 244 245 242 242 245 249 249 250 250 249 249 247 248 248 248 249 249 249 248 247 245 244 245 245 244 244 245 245 247 249 249 250 246 246 247 247 247 247 247 247 247 247 246 247
236 235 238 237 236 233 235 235 236 237 237 237 236 242 245 245 246 248 247 245 242 241 242 242 242 243 244 244 243 243 245 242 243 242 243 243 242 243 242 243 244 252 246 245 246 246 246 247 247 247 246 247 248 249
236 232 233 237 235 237 236 237 237 236 238 234 237 239 241 241 239 241 242 240 235 238 239 239 242 236 239 238 237 237 238 240 244 244 243 244 245 247 244 243 244 246 246 245 249 249 247 248 247 247 248 249 250 249
236 230 237 235 239 240 237 234 234 230 230 233 232 236 238 238 238 234 233 233 237 238 237 235 234 236 239 238 240 242 237 238 241 244 243 243 245 245 243 243 244 245 246 245 248 248 251 251 250 249 248 247 248 248
232 231 236 235 238 235 232 227 226 227 228 228 226 231 235 235 237 235 235 233 232 230 234 236 235 232 235 235 237 238 243 240 238 241 241 240 241 241 242 244 245 243 243 245 246 245 247 246 245 245 245 246 246 248
232 232 237 241 240 232 228 229 229 231 229 231 233 226 233 235 239 242 238 233 233 235 239 236 235 240 239 240 238 239 243 240 241 243 242 243 243 244 244 245 244 243 244 247 246 246 245 245 245 245 245 245 246 246
230 228 229 234 237 239 234 234 236 238 235 235 235 231 230 235 242 244 240 238 241 241 240 240 240 240 241 241 242 243 244 244 243 248 251 250 250 250 247 245 244 244 244 245 245 245 244 243 244 244 244 245 245 246
Wind_Speed
10 10 7 10 12 11 9 11 12 12 11 11 12 10 9 8 8 4 3 6 4 1 1 4 3 4 3 1 4 4 3 1 2 4 4 3 3 5 3 5 8 9 8 5 3 4 11 7 7 9 3 2 5 5
12 12 11 10 9 9 9 10 11 10 12 11 9 11 11 10 9 7 2 3 3 2 1 1 3 3 2 2 4 2 1 3 4 1 2 4 2 2 3 7 1 6 4 7 9 7 2 9 2 1 3 5 6 9
11 13 12 10 11 10 10 8 6 7 9 11 11 10 9 12 13 8 3 5 3 2 1 1 4 3 2 5 2 3 1 1 1 3 3 2 3 4 5 5 3 4 3 3 3 4 3 7 1 3 3 4 7 8
8 9 11 9 10 11 11 9 9 9 8 8 8 10 10 10 13 9 4 4 3 1 3 3 3 4 2 5 4 2 5 4 4 1 2 2 2 4 3 1 3 2 9 5 3 0 2 5 6 6 6 7 9 9
12 7 6 7 10 12 12 12 10 9 8 7 7 7 10 11 11 6 4 5 5 2 1 1 2 3 2 3 7 6 7 5 2 2 2 2 2 3 2 0 4 6 7 7 7 9 3 5 10 8 11 11 13 14
9 10 10 10 11 10 13 14 13 12 10 7 8 9 6 8 7 4 2 6 7 5 2 2 1 1 1 3 6 8 6 3 2 3 3 3 2 2 4 5 4 7 5 3 2 6 1 4 9 8 10 14 12 13
11 10 11 12 14 16 15 18 17 15 13 13 11 10 10 10 5 2 2 3 16 5 3 3 2 1 1 3 2 2 1 2 2 2 4 3 3 6 3 6 3 7 7 5 3 7 1 3 6 12 6 8 6 6
14 13 14 18 16 17 19 18 16 16 17 12 12 12 14 12 8 3 2 12 12 4 2 4 2 2 2 4 4 3 4 2 3 3 1 4 3 1 4 12 10 4 5 3 5 1 1 3 6 6 5 8 7 7
18 17 18 26 34 32 30 24 20 16 15 14 13 11 4 4 4 2 15 20 2 3 5 3 6 5 3 2 2 3 2 4 3 5 6 6 6 8 9 17 10 13 11 9 5 3 2 2 8 9 8 7 9 9
18 18 19 30 20 24 29 27 22 18 14 12 6 4 4 5 8 13 8 8 5 3 1 4 2 4 5 5 3 4 3 4 5 5 3 6 8 12 12 17 9 11 14 10 7 3 3 5 9 10 14 15 17 16
17 18 17 21 7 17 22 20 19 18 8 3 6 4 1 14 4 4 5 6 5 5 5 3 4 6 3 5 5 3 3 3 4 5 6 4 4 12 18 17 8 12 13 17 19 19 18 19 15 13 10 10 10 11
14 15 18 16 6 7 8 11 13 6 3 3 5 5 3 3 3 5 5 2 2 4 3 5 5 3 4 2 3 3 3 1 7 4 5 5 4 12 14 17 15 14 16 17 16 20 16 17 14 15 13 13 13 10
12 14 15 15 10 5 6 5 3 6 5 2 2 4 3 3 6 8 7 2 5 4 6 4 3 4 2 1 3 4 6 5 1 4 5 5 6 9 5 4 4 11 13 14 17 14 7 13 6 12 12 4 10 9
12 15 15 12 7 9 13 12 9 7 4 4 5 7 6 4 5 4 5 6 4 5 7 4 4 4 3 4 3 5 3 3 5 4 8 7 7 3 5 4 6 6 7 13 17 16 12 10 7 2 4 9 12 12
13 14 9 5 13 11 22 21 18 1 1 4 5 6 5 1 1 2 2 1 1 4 10 4 3 3 3 3 5 4 3 5 6 5 3 2 1 3 5 6 6 5 5 6 3 1 2 5 6 5 4 7 9 11
15 6 3 16 13 10 11 8 6 4 4 3 5 5 1 3 1 1 1 2 1 2 3 3 4 4 5 3 5 7 8 8 5 5 4 3 3 1 3 5 6 5 6 5 4 4 6 8 7 8 6 6 7 10
7 1 14 14 8 3 16 4 4 7 4 4 3 3 2 4 3 2 1 0 3 2 3 4 7 8 3 4 4 4 6 6 4 1 2 2 3 5 5 5 5 5 4 1 1 3 4 7 9 9 9 5 6 6
1 4 13 11 5 4 4 6 6 6 8 4 3 2 2 2 0 1 1 2 1 2 3 5 5 4 6 8 4 6 2 1 0 1 2 3 4 5 4 6 3 2 1 1 4 4 5 8 8 6 9 8 8 7
3 5 13 11 7 5 5 6 5 6 3 1 2 2 2 1 0 0 1 3 1 1 0 2 2 3 5 1 2 2 2 3 3 3 2 1 2 3 4 2 0 3 3 3 4 3 3 1 3 6 7 7 6 6
8 15 13 17 9 5 6 5 3 6 3 1 2 2 2 2 1 2 3 4 2 0 2 3 1 2 1 0 1 2 2 4 2 3 1 1 2 1 2 1 1 3 3 4 5 5 5 5 4 4 5 5 6 6
8 8 11 8 5 8 6 4 5 3 3 4 1 1 1 2 3 4 4 5 3 3 1 1 1 2 3 3 2 2 4 3 2 2 3 3 1 1 2 2 2 2 2 4 4 4 5 3 4 4 5 4 4 5
3 11 4 6 6 5 6 5 3 1 3 1 2 2 3 3 3 3 3 5 3 0 1 1 2 2 3 2 2 2 4 5 5 4 3 2 1 1 2 2 2 2 2 3 3 4 4 3 3 4 4 4 4 4
6 5 6 9 7 7 3 4 3 5 3 2 1 3 3 2 2 4 3 1 1 1 1 2 2 2 3 4 3 2 3 4 1 2 2 1 2 2 3 1 1 3 3 2 1 3 4 5 3 4 5 5 4 3
13 11 9 7 8 3 2 4 3 2 2 3 3 2 2 3 5 2 2 2 1 0 1 1 1 2 2 2 1 2 3 3 0 1 2 0 2 2 3 2 2 2 3 4 3 3 4 4 5 4 4 4 3 2
11 13 8 9 5 5 6 4 4 3 3 3 1 2 2 3 0 2 2 2 1 2 1 1 2 1 2 2 1 1 2 3 2 1 2 2 2 1 1 1 1 2 1 3 3 4 3 3 2 2 3 3 3 2
13 6 7 3 5 5 3 3 5 3 3 2 4 3 2 1 1 1 2 3 2 1 1 1 2 2 0 1 2 2 3 3 3 1 1 2 2 1 1 1 0 1 2 1 3 4 4 3 3 3 2 2 2 3
9 6 3 0 2 2 3 1 0 2 4 3 3 5 3 3 1 1 0 1 1 1 2 2 2 2 2 2 1 2 2 2 2 2 2 2 2 1 1 0 1 1 1 4 3 3 4 4 3 3 3 2 4 5
3 3 3 5 3 0 4 2 4 3 2 1 0 3 2 3 3 1 1 1 1 1 1 2 1 1 2 1 1 3 1 2 3 3 2 2 2 2 2 2 3 5 0 2 3 3 3 4 4 5 5 6 5 5
4 3 0 5 3 4 3 2 1 2 1 3 2 2 3 3 3 2 2 1 1 1 2 3 3 3 3 3 2 2 1 1 3 4 3 3 3 3 2 2 2 2 1 2 6 7 7 6 6 6 7 5 5 4
4 2 2 2 4 3 3 3 3 2 1 1 2 4 3 4 4 1 1 1 0 3 3 2 2 0 2 0 3 4 2 3 3 3 3 3 4 2 2 2 3 3 2 2 3 3 6 2 3 2 2 3 3 4
1 2 2 2 1 3 3 2 1 1 1 1 1 2 4 5 6 3 3 3 2 2 1 3 3 3 3 3 3 0 3 2 5 7 5 3 3 4 4 4 3 3 2 3 3 3 3 3 3 4 5 6 7 7
3 3 2 4 3 2 2 2 1 1 3 3 3 1 4 3 4 4 4 4 2 2 6 3 2 4 5 4 3 3 5 3 3 4 6 5 5 5 4 4 3 3 4 5 5 4 5 6 5 5 6 8 9 9
1 0 1 2 4 5 4 4 5 5 3 3 3 1 2 2 4 5 2 5 4 4 4 4 4 4 5 6 6 4 6 5 6 9 9 11 11 9 5 4 4 4 6 5 5 5 6 4 6 8 9 10 12 12
Wind_Direction
303 282 280 262 249 245 235 228 227 229 231 223 221 221 219 219 216 158 115 169 146 171 258 193 205 141 121 199 155 150 133 104 140 176 172 153 162 195 144 153 167 166 157 173 140 189 247 148 101 191 178 77 144 154
324 297 267 262 257 246 233 235 230 214 223 216 220 228 219 218 224 171 130 157 121 151 347 303 273 302 349 170 135 195 66 158 161 231 73 110 133 178 140 182 40 204 206 171 190 203 72 183 28 173 152 144 175 148
342 326 290 256 239 211 209 206 197 205 217 214 211 218 230 226 222 189 138 133 90 152 166 271 234 267 200 218 211 146 248 201 136 358 141 103 182 152 171 223 126 235 198 224 157 174 183 189 158 181 174 138 137 131
313 338 330 264 247 228 209 206 212 179 185 194 214 224 218 221 231 187 171 143 122 98 207 214 327 246 294 184 178 142 125 86 86 20 91 134 198 204 194 98 207 153 154 166 285 297 75 230 225 169 137 122 117 124
292 300 316 318 273 246 223 214 223 216 194 188 198 214 218 217 216 206 176 175 173 183 194 242 327 269 271 213 189 143 132 132 146 115 110 204 134 159 47 333 211 187 167 191 221 178 162 211 186 164 155 160 157 144
312 312 314 304 292 261 246 238 225 222 212 219 220 206 220 216 209 106 210 188 170 126 156 212 17 14 46 134 166 176 162 125 132 159 176 192 227 195 185 210 235 200 191 197 204 180 90 18 172 160 167 169 169 156
310 303 297 288 295 274 249 241 226 219 229 221 225 238 217 211 155 190 236 172 167 125 167 170 244 358 41 109 93 98 49 163 156 157 215 197 183 175 172 231 203 211 194 204 164 121 47 185 183 186 165 152 111 84
320 310 313 309 290 275 259 236 222 223 222 225 223 246 247 225 155 213 233 157 134 105 172 190 152 160 214 149 168 180 149 189 187 191 89 197 115 158 233 238 223 189 192 191 184 244 298 107 100 122 102 127 137 153
325 316 322 313 287 263 237 232 218 218 223 217 223 246 241 222 184 174 174 166 137 159 175 167 154 183 167 132 144 157 173 181 151 205 200 152 175 207 217 235 193 198 180 194 158 114 53 205 181 161 144 161 169 173
323 326 338 308 289 212 192 210 210 217 220 212 195 196 175 196 161 133 175 184 203 159 112 170 78 161 177 157 157 150 182 203 194 208 129 222 223 219 227 234 216 179 199 139 128 244 215 242 193 184 195 188 191 187
324 327 343 348 10 151 177 194 207 218 205 169 203 171 220 159 98 184 213 198 144 176 162 152 186 138 208 152 171 217 194 181 214 200 206 205 212 220 230 239 200 195 184 192 203 213 206 211 197 192 199 199 188 166
321 332 333 351 12 135 181 187 200 181 171 200 139 116 120 115 168 207 181 168 208 146 146 158 177 162 152 134 133 184 199 183 241 137 206 229 238 234 228 228 216 192 193 206 210 217 212 208 196 193 198 193 191 174
329 327 334 340 337 5 354 349 268 237 164 166 126 116 126 161 183 188 177 135 152 176 159 164 130 121 121 166 111 167 186 218 93 219 218 231 226 238 275 301 249 204 207 214 219 227 205 203 172 185 193 161 144 141
331 329 334 333 342 303 296 272 260 250 207 198 162 145 187 163 208 174 166 162 186 137 152 140 122 150 164 160 151 175 184 126 191 227 230 247 248 334 337 340 332 326 288 248 225 219 208 181 172 100 121 144 147 156
332 336 343 330 323 337 327 241 224 223 244 198 129 171 178 185 0 101 73 242 125 149 140 112 86 139 134 160 175 120 150 213 199 201 233 236 14 345 341 334 321 315 304 290 300 343 96 121 145 129 110 130 134 132
341 6 334 328 333 359 6 45 58 91 58 59 56 135 51 99 326 22 148 120 302 141 97 65 117 153 177 200 171 190 160 201 210 214 223 122 141 20 329 310 305 305 303 279 237 195 153 156 154 136 102 91 114 134
53 28 320 327 341 49 42 75 78 57 89 84 78 33 360 24 66 92 317 300 306 122 181 123 154 198 119 136 198 196 195 216 201 169 71 43 335 324 313 294 301 302 289 244 110 76 86 97 116 120 130 131 112 101
136 282 336 340 42 47 48 33 77 65 62 36 70 5 47 38 352 85 23 288 223 144 150 195 123 161 187 175 217 215 207 21 76 5 342 331 293 285 291 289 306 314 307 101 105 85 121 139 149 144 126 137 120 126
177 23 12 21 55 78 55 31 37 87 77 106 86 52 97 127 154 154 287 330 299 316 121 128 159 188 208 22 355 10 347 2 330 339 326 288 281 289 289 281 252 93 106 105 121 133 110 75 118 138 138 154 143 150
51 29 23 32 37 69 68 30 18 81 90 128 58 35 79 58 338 15 16 12 346 306 173 224 49 42 352 302 226 276 281 319 303 317 296 21 29 50 20 315 77 101 102 90 98 113 106 91 80 118 135 135 135 153
34 352 17 53 51 56 70 7 55 55 126 77 293 50 67 30 34 22 7 339 57 35 78 48 273 253 273 255 255 257 277 298 296 299 323 312 102 105 84 75 92 86 126 130 135 120 97 113 126 130 136 125 108 127
334 14 46 12 82 71 76 14 47 35 58 87 60 26 32 31 11 359 282 49 55 48 202 235 269 299 314 322 287 271 287 287 266 266 303 117 142 155 152 141 121 111 115 97 126 122 108 115 138 130 133 117 106 103
22 29 49 14 77 43 20 316 56 9 60 40 359 52 27 32 359 299 74 75 94 157 206 245 263 248 270 298 284 297 322 314 328 7 1 27 49 62 97 71 122 135 128 93 82 115 114 127 133 122 114 112 116 109
31 46 35 38 19 56 310 38 34 57 52 36 50 63 27 357 330 24 22 19 51 85 227 264 300 295 215 235 298 1 359 335 88 98 355 8 99 50 26 42 23 30 37 116 133 119 107 121 123 134 121 111 128 146
65 1 24 8 10 27 33 32 10 47 67 13 86 85 22 326 65 44 347 19 7 350 329 326 305 319 326 339 350 31 19 347 346 34 33 6 94 141 75 45 15 29 83 142 156 151 129 105 129 145 154 169 164 181
67 327 45 322 348 44 0 52 25 20 337 53 38 346 329 340 88 59 355 341 342 324 323 338 346 337 18 7 320 357 8 344 310 283 52 25 7 318 176 172 196 162 194 316 128 153 162 174 178 181 199 218 216 216
55 345 339 200 133 134 61 9 329 21 52 32 357 342 360 77 15 12 145 60 308 8 342 343 328 328 331 339 338 359 323 321 332 323 313 301 277 290 280 226 212 347 181 191 187 173 176 183 202 216 236 246 235 225
121 17 45 323 29 3 117 59 43 34 291 254 74 12 110 170 228 273 239 64 292 309 291 294 293 266 258 254 277 299 297 329 285 259 245 228 205 226 250 285 291 298 269 207 202 188 193 195 201 209 216 229 238 214
38 333 3 10 11 41 63 105 215 240 231 121 156 280 266 243 245 253 272 335 336 63 9 330 299 332 306 294 283 267 234 27 52 23 0 310 340 325 3 278 277 288 276 222 231 201 214 214 210 213 223 229 242 235
341 19 39 30 63 5 261 167 230 255 236 203 268 298 279 270 251 204 116 29 74 232 235 221 276 24 253 195 309 313 237 192 191 159 177 231 228 266 314 273 231 237 225 223 243 277 301 23 333 12 207 241 240 244
305 17 45 52 148 250 245 290 313 325 13 333 333 182 258 304 305 230 192 213 174 131 138 275 276 214 195 219 206 284 318 257 219 239 244 256 268 263 262 254 247 234 212 220 228 235 247 250 244 260 268 267 268 271
3 62 62 13 317 281 42 42 292 38 329 12 297 308 311 340 304 276 189 135 112 225 240 199 202 262 217 234 245 255 246 242 227 230 227 229 237 242 242 240 227 214 223 229 225 226 229 238 245 248 268 275 275 273
6 239 192 355 350 1 340 9 13 344 12 360 307 225 223 191 259 284 222 212 208 200 211 213 227 240 238 237 237 246 243 239 251 259 254 248 247 249 235 220 215 215 226 235 238 233 241 246 268 268 265 262 265 267